| time (UTC) | temp F | wind direction | speed MPH | gust MPH | rain 1hr in | rain 24hr in | rain mn in | humidity % | barometer mb |
| 20260508023409 | 53 | 322 | 2.0 | 5.0 | 0.00 | 0.00 | 0.00 | 95 | 1015.0 |
| 20260508022908 | 53 | 223 | 2.0 | 4.0 | 0.00 | 0.00 | 0.00 | 94 | 1015.0 |
| 20260508022408 | 53 | 255 | 1.0 | 3.0 | 0.00 | 0.00 | 0.00 | 94 | 1014.9 |
| 20260508021908 | 54 | 222 | 0.0 | 0.0 | 0.00 | 0.00 | 0.00 | 94 | 1014.6 |
| 20260508021407 | 53 | 222 | 0.0 | 0.0 | 0.00 | 0.00 | 0.00 | 94 | 1014.5 |
| 20260508020907 | 53 | 222 | 0.0 | 0.0 | 0.00 | 0.00 | 0.00 | 94 | 1014.6 |
| 20260508020407 | 53 | 222 | 0.0 | 0.0 | 0.00 | 0.00 | 0.00 | 94 | 1014.7 |
| 20260508015907 | 53 | 222 | 0.0 | 0.0 | 0.00 | 0.00 | 0.00 | 93 | 1014.7 |
| 20260508015406 | 53 | 222 | 0.0 | 0.0 | 0.00 | 0.00 | 0.00 | 93 | 1014.7 |
| 20260508014906 | 53 | 222 | 0.0 | 0.0 | 0.00 | 0.00 | 0.00 | 93 | 1014.8 |
| 20260508014406 | 53 | 222 | 0.0 | 0.0 | 0.00 | 0.00 | 0.00 | 93 | 1014.8 |
| 20260508013905 | 53 | 222 | 0.0 | 0.0 | 0.00 | 0.00 | 0.00 | 93 | 1014.8 |
| 20260508013405 | 54 | 222 | 0.0 | 0.0 | 0.00 | 0.00 | 0.00 | 93 | 1014.7 |
| 20260508012905 | 54 | 222 | 0.0 | 0.0 | 0.00 | 0.00 | 0.00 | 93 | 1014.8 |
| 20260508012405 | 54 | 222 | 0.0 | 0.0 | 0.00 | 0.00 | 0.00 | 93 | 1014.8 |
| 20260508011904 | 54 | 222 | 0.0 | 0.0 | 0.00 | 0.00 | 0.00 | 93 | 1014.8 |
| 20260508011404 | 54 | 222 | 0.0 | 0.0 | 0.00 | 0.00 | 0.00 | 93 | 1014.9 |
| 20260508010904 | 54 | 222 | 0.0 | 0.0 | 0.00 | 0.00 | 0.00 | 93 | 1014.9 |
| 20260508010403 | 54 | 222 | 0.0 | 0.0 | 0.00 | 0.00 | 0.00 | 93 | 1014.9 |
| 20260508005903 | 54 | 205 | 0.0 | 0.0 | 0.00 | 0.00 | 0.00 | 93 | 1014.9 |
| 20260508005403 | 54 | 220 | 0.0 | 1.0 | 0.00 | 0.00 | 0.00 | 93 | 1014.9 |
| 20260508004903 | 54 | 212 | 0.0 | 0.0 | 0.00 | 0.00 | 0.00 | 93 | 1014.9 |
| 20260508004402 | 54 | 212 | 0.0 | 0.0 | 0.00 | 0.00 | 0.00 | 93 | 1014.8 |
| 20260508003902 | 54 | 212 | 0.0 | 2.0 | 0.00 | 0.00 | 0.00 | 93 | 1014.9 |
| 20260508003402 | 54 | 254 | 1.0 | 1.0 | 0.00 | 0.00 | 0.00 | 93 | 1014.9 |
| 20260508002902 | 54 | 230 | 0.0 | 2.0 | 0.00 | 0.00 | 0.00 | 93 | 1015.0 |
| 20260508002401 | 54 | 229 | 0.0 | 0.0 | 0.00 | 0.00 | 0.00 | 93 | 1015.0 |
| 20260508001901 | 54 | 229 | 0.0 | 0.0 | 0.00 | 0.00 | 0.00 | 93 | 1015.0 |
| 20260508001401 | 54 | 247 | 0.0 | 2.0 | 0.00 | 0.00 | 0.00 | 93 | 1015.1 |
| 20260508000900 | 54 | 196 | 0.0 | 3.0 | 0.00 | 0.00 | 0.00 | 94 | 1015.0 |
| 20260508000400 | 54 | 237 | 0.0 | 3.0 | 0.00 | 0.00 | 0.00 | 93 | 1015.0 |
| 20260507235900 | 54 | 320 | 0.0 | 0.0 | 0.00 | 0.00 | 0.00 | 93 | 1014.9 |
| 20260507235400 | 54 | 320 | 0.0 | 0.0 | 0.00 | 0.00 | 0.00 | 93 | 1014.9 |
| 20260507234859 | 54 | 320 | 0.0 | 0.0 | 0.00 | 0.00 | 0.00 | 93 | 1014.9 |
| 20260507234359 | 54 | 320 | 0.0 | 1.0 | 0.00 | 0.00 | 0.00 | 93 | 1014.8 |
| 20260507233859 | 54 | 320 | 1.0 | 4.0 | 0.00 | 0.00 | 0.00 | 93 | 1014.8 |
| 20260507233358 | 54 | 253 | 0.0 | 1.0 | 0.00 | 0.00 | 0.00 | 93 | 1014.9 |
| 20260507232858 | 54 | 253 | 0.0 | 2.0 | 0.00 | 0.00 | 0.00 | 93 | 1014.9 |
| 20260507232358 | 54 | 251 | 0.0 | 0.0 | 0.00 | 0.00 | 0.00 | 93 | 1014.9 |
| 20260507231858 | 54 | 251 | 0.0 | 4.0 | 0.00 | 0.00 | 0.00 | 93 | 1014.9 |
| 20260507231357 | 54 | 309 | 0.0 | 5.0 | 0.00 | 0.00 | 0.00 | 93 | 1014.9 |
| 20260507230857 | 54 | 315 | 4.0 | 5.0 | 0.00 | 0.00 | 0.00 | 93 | 1014.9 |
| 20260507230357 | 54 | 240 | 2.0 | 6.0 | 0.00 | 0.00 | 0.00 | 93 | 1014.9 |
| 20260507225856 | 55 | 19 | 1.0 | 4.0 | 0.00 | 0.00 | 0.00 | 93 | 1014.8 |
| 20260507225356 | 55 | 312 | 0.0 | 5.0 | 0.00 | 0.00 | 0.00 | 93 | 1014.9 |
| 20260507224856 | 55 | 203 | 0.0 | 3.0 | 0.00 | 0.00 | 0.00 | 93 | 1014.9 |
| 20260507224356 | 55 | 261 | 3.0 | 5.0 | 0.00 | 0.00 | 0.00 | 93 | 1014.9 |
| 20260507223855 | 55 | 324 | 0.0 | 1.0 | 0.00 | 0.00 | 0.00 | 93 | 1014.8 |
| 20260507223355 | 55 | 254 | 0.0 | 5.0 | 0.00 | 0.00 | 0.00 | 93 | 1014.8 |
| 20260507222855 | 55 | 243 | 0.0 | 3.0 | 0.00 | 0.00 | 0.00 | 93 | 1014.8 |
| 20260507222354 | 56 | 278 | 1.0 | 2.0 | 0.00 | 0.00 | 0.00 | 93 | 1014.8 |
| 20260507221854 | 56 | 277 | 0.0 | 3.0 | 0.00 | 0.00 | 0.00 | 93 | 1014.9 |
| 20260507221354 | 56 | 316 | 0.0 | 3.0 | 0.00 | 0.00 | 0.00 | 93 | 1014.9 |
| 20260507220854 | 56 | 285 | 0.0 | 2.0 | 0.00 | 0.00 | 0.00 | 93 | 1014.9 |
| 20260507220353 | 56 | 9 | 0.0 | 4.0 | 0.00 | 0.00 | 0.00 | 93 | 1014.8 |
| 20260507215853 | 56 | 254 | 0.0 | 5.0 | 0.00 | 0.00 | 0.00 | 93 | 1014.8 |
| 20260507215353 | 56 | 258 | 0.0 | 0.0 | 0.00 | 0.00 | 0.00 | 93 | 1014.8 |
| 20260507214852 | 56 | 258 | 0.0 | 4.0 | 0.00 | 0.00 | 0.00 | 93 | 1014.8 |
| 20260507214352 | 56 | 4 | 4.0 | 4.0 | 0.00 | 0.00 | 0.00 | 93 | 1014.8 |
| 20260507213852 | 56 | 264 | 0.0 | 1.0 | 0.00 | 0.00 | 0.00 | 93 | 1014.8 |
| 20260507213352 | 56 | 264 | 1.0 | 2.0 | 0.00 | 0.00 | 0.00 | 93 | 1014.7 |
| 20260507212851 | 56 | 244 | 0.0 | 0.0 | 0.00 | 0.00 | 0.00 | 93 | 1014.7 |
| 20260507212351 | 56 | 244 | 0.0 | 3.0 | 0.00 | 0.00 | 0.00 | 93 | 1014.7 |
| 20260507211851 | 56 | 239 | 1.0 | 2.0 | 0.00 | 0.00 | 0.00 | 92 | 1014.7 |
| 20260507211350 | 56 | 202 | 0.0 | 1.0 | 0.00 | 0.00 | 0.00 | 93 | 1014.6 |
| 20260507210850 | 56 | 201 | 0.0 | 0.0 | 0.00 | 0.00 | 0.00 | 93 | 1014.5 |
| 20260507210350 | 56 | 201 | 0.0 | 1.0 | 0.00 | 0.00 | 0.00 | 93 | 1014.5 |
| 20260507205850 | 56 | 250 | 0.0 | 0.0 | 0.00 | 0.00 | 0.00 | 93 | 1014.5 |
| 20260507205349 | 56 | 250 | 0.0 | 3.0 | 0.00 | 0.00 | 0.00 | 93 | 1014.5 |
| 20260507204849 | 57 | 237 | 2.0 | 3.0 | 0.00 | 0.00 | 0.00 | 94 | 1014.4 |
| 20260507204349 | 57 | 286 | 0.0 | 4.0 | 0.00 | 0.00 | 0.00 | 94 | 1014.4 |
| 20260507203849 | 57 | 261 | 0.0 | 3.0 | 0.00 | 0.00 | 0.00 | 94 | 1014.4 |
| 20260507203348 | 57 | 253 | 0.0 | 3.0 | 0.00 | 0.00 | 0.00 | 94 | 1014.3 |
| 20260507202848 | 57 | 271 | 1.0 | 4.0 | 0.00 | 0.00 | 0.00 | 94 | 1014.3 |
| 20260507202348 | 57 | 277 | 0.0 | 4.0 | 0.00 | 0.00 | 0.00 | 94 | 1014.2 |
| 20260507201847 | 57 | 184 | 1.0 | 6.0 | 0.00 | 0.00 | 0.00 | 94 | 1014.2 |
| 20260507201347 | 57 | 202 | 4.0 | 6.0 | 0.00 | 0.00 | 0.00 | 94 | 1014.3 |
| 20260507200847 | 57 | 219 | 2.0 | 6.0 | 0.00 | 0.00 | 0.00 | 94 | 1014.4 |
| 20260507200347 | 57 | 205 | 2.0 | 4.0 | 0.00 | 0.00 | 0.00 | 94 | 1014.3 |
| 20260507195846 | 57 | 236 | 2.0 | 5.0 | 0.00 | 0.00 | 0.00 | 94 | 1014.2 |
| 20260507195346 | 57 | 254 | 5.0 | 8.0 | 0.00 | 0.00 | 0.00 | 93 | 1014.2 |
| 20260507194846 | 57 | 178 | 2.0 | 6.0 | 0.00 | 0.00 | 0.00 | 93 | 1014.1 |
| 20260507194345 | 57 | 248 | 5.0 | 6.0 | 0.00 | 0.00 | 0.00 | 92 | 1014.1 |
| 20260507193845 | 57 | 270 | 2.0 | 3.0 | 0.00 | 0.00 | 0.00 | 92 | 1014.1 |
| 20260507193345 | 57 | 232 | 0.0 | 0.0 | 0.00 | 0.00 | 0.00 | 91 | 1014.0 |
| 20260507192844 | 57 | 232 | 0.0 | 0.0 | 0.00 | 0.00 | 0.00 | 91 | 1013.9 |
| 20260507192344 | 57 | 232 | 0.0 | 0.0 | 0.00 | 0.00 | 0.00 | 91 | 1013.8 |
| 20260507191844 | 57 | 232 | 0.0 | 0.0 | 0.00 | 0.00 | 0.00 | 91 | 1013.7 |
| 20260507191344 | 57 | 232 | 0.0 | 0.0 | 0.00 | 0.00 | 0.00 | 90 | 1013.5 |
| 20260507190843 | 57 | 232 | 0.0 | 0.0 | 0.00 | 0.00 | 0.00 | 90 | 1013.3 |
| 20260507190343 | 57 | 232 | 0.0 | 0.0 | 0.00 | 0.00 | 0.00 | 90 | 1013.2 |
| 20260507185843 | 57 | 232 | 0.0 | 0.0 | 0.00 | 0.00 | 0.00 | 90 | 1013.1 |
| 20260507185343 | 57 | 232 | 0.0 | 0.0 | 0.00 | 0.00 | 0.00 | 90 | 1013.1 |
| 20260507184842 | 57 | 232 | 0.0 | 0.0 | 0.00 | 0.00 | 0.00 | 90 | 1013.2 |
| 20260507184342 | 57 | 232 | 0.0 | 0.0 | 0.00 | 0.00 | 0.00 | 90 | 1013.2 |
| 20260507183842 | 57 | 232 | 0.0 | 0.0 | 0.00 | 0.00 | 0.00 | 90 | 1013.0 |
| 20260507183341 | 57 | 232 | 0.0 | 0.0 | 0.00 | 0.00 | 0.00 | 90 | 1013.0 |
| 20260507182841 | 57 | 232 | 0.0 | 0.0 | 0.00 | 0.00 | 0.00 | 90 | 1012.9 |
| 20260507182341 | 57 | 232 | 0.0 | 0.0 | 0.00 | 0.00 | 0.00 | 90 | 1013.0 |
| 20260507181841 | 57 | 232 | 0.0 | 0.0 | 0.00 | 0.00 | 0.00 | 90 | 1012.8 |
| 20260507181340 | 57 | 232 | 0.0 | 0.0 | 0.00 | 0.00 | 0.00 | 90 | 1012.6 |
| 20260507180840 | 57 | 232 | 0.0 | 0.0 | 0.00 | 0.00 | 0.00 | 90 | 1012.5 |
| 20260507180340 | 57 | 232 | 0.0 | 0.0 | 0.00 | 0.00 | 0.00 | 90 | 1012.6 |
| 20260507175839 | 58 | 232 | 0.0 | 2.0 | 0.00 | 0.00 | 0.00 | 90 | 1012.7 |
| 20260507175339 | 57 | 189 | 0.0 | 3.0 | 0.00 | 0.00 | 0.00 | 90 | 1012.9 |
| 20260507174839 | 58 | 232 | 1.0 | 2.0 | 0.00 | 0.00 | 0.00 | 90 | 1012.8 |
| 20260507174339 | 58 | 225 | 0.0 | 0.0 | 0.00 | 0.00 | 0.00 | 90 | 1012.7 |
| 20260507173838 | 58 | 233 | 0.0 | 2.0 | 0.00 | 0.00 | 0.00 | 90 | 1012.7 |
| 20260507173338 | 58 | 250 | 1.0 | 3.0 | 0.00 | 0.00 | 0.00 | 90 | 1012.9 |
| 20260507172838 | 58 | 226 | 1.0 | 2.0 | 0.00 | 0.00 | 0.00 | 90 | 1012.9 |
| 20260507172337 | 58 | 219 | 1.0 | 5.0 | 0.00 | 0.00 | 0.00 | 89 | 1012.9 |
| 20260507171837 | 57 | 246 | 1.0 | 5.0 | 0.00 | 0.00 | 0.00 | 89 | 1012.9 |
| 20260507171337 | 57 | 246 | 4.0 | 6.0 | 0.00 | 0.00 | 0.00 | 89 | 1012.9 |
| 20260507170837 | 57 | 240 | 5.0 | 7.0 | 0.00 | 0.00 | 0.00 | 89 | 1012.9 |
| 20260507170336 | 57 | 236 | 2.0 | 7.0 | 0.00 | 0.00 | 0.00 | 89 | 1012.9 |
| 20260507165836 | 57 | 239 | 3.0 | 10.0 | 0.00 | 0.00 | 0.00 | 88 | 1012.9 |
| 20260507165336 | 58 | 216 | 2.0 | 2.0 | 0.00 | 0.00 | 0.00 | 87 | 1012.7 |
| 20260507164835 | 58 | 227 | 0.0 | 0.0 | 0.00 | 0.00 | 0.00 | 86 | 1012.4 |
| 20260507164335 | 58 | 227 | 0.0 | 0.0 | 0.00 | 0.00 | 0.00 | 86 | 1012.4 |
| 20260507163835 | 58 | 227 | 0.0 | 0.0 | 0.00 | 0.00 | 0.00 | 86 | 1012.5 |
| 20260507163335 | 58 | 227 | 0.0 | 0.0 | 0.00 | 0.00 | 0.00 | 86 | 1012.5 |
| 20260507162834 | 58 | 227 | 0.0 | 0.0 | 0.00 | 0.00 | 0.00 | 85 | 1012.4 |
| 20260507162334 | 58 | 227 | 0.0 | 0.0 | 0.00 | 0.00 | 0.00 | 85 | 1012.3 |
| 20260507161834 | 58 | 227 | 0.0 | 3.0 | 0.00 | 0.00 | 0.00 | 86 | 1012.3 |
| 20260507161334 | 58 | 240 | 2.0 | 3.0 | 0.00 | 0.00 | 0.00 | 85 | 1012.3 |
| 20260507160833 | 58 | 255 | 1.0 | 4.0 | 0.00 | 0.00 | 0.00 | 84 | 1012.1 |
| 20260507160333 | 58 | 268 | 0.0 | 5.0 | 0.00 | 0.00 | 0.00 | 83 | 1012.0 |
| 20260507155833 | 59 | 352 | 4.0 | 4.0 | 0.00 | 0.00 | 0.00 | 81 | 1012.0 |
| 20260507155332 | 59 | 264 | 0.0 | 6.0 | 0.00 | 0.00 | 0.00 | 80 | 1012.1 |
| 20260507154832 | 60 | 4 | 0.0 | 3.0 | 0.00 | 0.00 | 0.00 | 77 | 1012.0 |
| 20260507154333 | 60 | 260 | 1.0 | 7.0 | 0.00 | 0.00 | 0.00 | 74 | 1011.7 |
| 20260507153831 | 61 | 236 | 1.0 | 7.0 | 0.00 | 0.00 | 0.00 | 70 | 1011.7 |
| 20260507153527 | 62 | 127 | 1.0 | 3.0 | 0.00 | 0.00 | 0.00 | 68 | 1011.6 |
| 20260507153331 | 62 | 127 | 1.0 | 3.0 | 0.00 | 0.00 | 0.00 | 68 | 1011.6 |
| 20260507153114 | 62 | 316 | 0.0 | 6.0 | 0.00 | 0.00 | 0.00 | ||
| 20260507152831 | 62 | 316 | 0.0 | 6.0 | 0.00 | 0.00 | 0.00 | 66 | 1011.5 |
| 20260507152331 | 63 | 271 | 2.0 | 6.0 | 0.00 | 0.00 | 0.00 | 64 | 1011.7 |
| 20260507152228 | 63 | 286 | 2.0 | 7.0 | 0.00 | 0.00 | 0.00 | 61 | 1011.6 |
| 20260507151830 | 63 | 286 | 2.0 | 7.0 | 0.00 | 0.00 | 0.00 | 61 | 1011.6 |
| 20260507151330 | 64 | 260 | 0.0 | 5.0 | 0.00 | 0.00 | 0.00 | 60 | 1011.5 |
| 20260507150830 | 64 | 270 | 3.0 | 6.0 | 0.00 | 0.00 | 0.00 | 59 | 1011.6 |
| 20260507150330 | 64 | 337 | 0.0 | 5.0 | 0.00 | 0.00 | 0.00 | 59 | 1011.4 |
| 20260507145829 | 64 | 264 | 0.0 | 5.0 | 0.00 | 0.00 | 0.00 | 58 | 1011.4 |
| 20260507145329 | 64 | 239 | 1.0 | 7.0 | 0.00 | 0.00 | 0.00 | 57 | 1011.4 |
| 20260507144829 | 64 | 302 | 2.0 | 5.0 | 0.00 | 0.00 | 0.00 | 56 | 1011.4 |
| 20260507144328 | 65 | 336 | 2.0 | 7.0 | 0.00 | 0.00 | 0.00 | 55 | 1011.3 |
| 20260507143828 | 65 | 1 | 1.0 | 9.0 | 0.00 | 0.00 | 0.00 | 54 | 1011.3 |
| 20260507143328 | 66 | 274 | 0.0 | 9.0 | 0.00 | 0.00 | 0.00 | 53 | 1011.3 |
| 20260507142828 | 66 | 306 | 3.0 | 9.0 | 0.00 | 0.00 | 0.00 | 54 | 1011.3 |
| 20260507142327 | 68 | 246 | 4.0 | 9.0 | 0.00 | 0.00 | 0.00 | 52 | 1011.1 |
| 20260507141827 | 69 | 239 | 8.0 | 9.0 | 0.00 | 0.00 | 0.00 | 47 | 1011.0 |
| 20260507141327 | 69 | 215 | 3.0 | 12.0 | 0.00 | 0.00 | 0.00 | 46 | 1010.8 |
| 20260507140826 | 69 | 181 | 0.0 | 8.0 | 0.00 | 0.00 | 0.00 | 47 | 1010.8 |
| 20260507140326 | 69 | 250 | 8.0 | 14.0 | 0.00 | 0.00 | 0.00 | 46 | 1010.7 |
| 20260507135826 | 69 | 237 | 9.0 | 13.0 | 0.00 | 0.00 | 0.00 | 45 | 1010.8 |
| 20260507135326 | 69 | 233 | 12.0 | 12.0 | 0.00 | 0.00 | 0.00 | 46 | 1010.7 |
| 20260507134825 | 69 | 237 | 3.0 | 10.0 | 0.00 | 0.00 | 0.00 | 45 | 1010.7 |
| 20260507134325 | 69 | 225 | 5.0 | 10.0 | 0.00 | 0.00 | 0.00 | 45 | 1010.6 |
| 20260507133825 | 69 | 143 | 2.0 | 11.0 | 0.00 | 0.00 | 0.00 | 45 | 1010.6 |
| 20260507133324 | 69 | 295 | 7.0 | 11.0 | 0.00 | 0.00 | 0.00 | 45 | 1010.5 |
| 20260507132824 | 70 | 213 | 3.0 | 9.0 | 0.00 | 0.00 | 0.00 | 45 | 1010.5 |
| 20260507132324 | 70 | 232 | 4.0 | 9.0 | 0.00 | 0.00 | 0.00 | 45 | 1010.4 |
| 20260507131824 | 69 | 212 | 7.0 | 10.0 | 0.00 | 0.00 | 0.00 | 44 | 1010.4 |
| 20260507131323 | 70 | 220 | 5.0 | 14.0 | 0.00 | 0.00 | 0.00 | 43 | 1010.5 |
| 20260507130823 | 70 | 233 | 3.0 | 12.0 | 0.00 | 0.00 | 0.00 | 43 | 1010.5 |
| 20260507130323 | 70 | 227 | 3.0 | 14.0 | 0.00 | 0.00 | 0.00 | 43 | 1010.5 |
| 20260507125822 | 71 | 213 | 4.0 | 15.0 | 0.00 | 0.00 | 0.00 | 43 | 1010.5 |
| 20260507125322 | 71 | 239 | 3.0 | 9.0 | 0.00 | 0.00 | 0.00 | 42 | 1010.5 |
| 20260507124822 | 71 | 233 | 5.0 | 14.0 | 0.00 | 0.00 | 0.00 | 41 | 1010.5 |
| 20260507124322 | 71 | 222 | 5.0 | 11.0 | 0.00 | 0.00 | 0.00 | 43 | 1010.6 |
| 20260507123821 | 70 | 175 | 6.0 | 14.0 | 0.00 | 0.00 | 0.00 | 42 | 1010.5 |
| 20260507123321 | 70 | 219 | 14.0 | 14.0 | 0.00 | 0.00 | 0.00 | 43 | 1010.6 |
| 20260507122821 | 70 | 261 | 7.0 | 10.0 | 0.00 | 0.00 | 0.00 | 43 | 1010.6 |
| 20260507122320 | 70 | 246 | 5.0 | 9.0 | 0.00 | 0.00 | 0.00 | 44 | 1010.6 |
| 20260507121820 | 70 | 233 | 5.0 | 10.0 | 0.00 | 0.00 | 0.00 | 45 | 1010.6 |
| 20260507121320 | 69 | 250 | 3.0 | 11.0 | 0.00 | 0.00 | 0.00 | 44 | 1010.8 |
| 20260507120820 | 70 | 251 | 4.0 | 17.0 | 0.00 | 0.00 | 0.00 | 44 | 1010.8 |
| 20260507120319 | 70 | 192 | 15.0 | 15.0 | 0.00 | 0.00 | 0.00 | 43 | 1010.8 |
| 20260507115819 | 70 | 111 | 4.0 | 13.0 | 0.00 | 0.00 | 0.00 | 44 | 1010.8 |
| 20260507115319 | 70 | 203 | 9.0 | 12.0 | 0.00 | 0.00 | 0.00 | 44 | 1010.9 |
| 20260507114818 | 70 | 216 | 11.0 | 15.0 | 0.00 | 0.00 | 0.00 | 44 | 1010.9 |
| 20260507114318 | 70 | 156 | 10.0 | 12.0 | 0.00 | 0.00 | 0.00 | 45 | 1011.0 |
| 20260507113818 | 71 | 213 | 3.0 | 17.0 | 0.00 | 0.00 | 0.00 | 43 | 1011.1 |
| 20260507113318 | 70 | 229 | 7.0 | 16.0 | 0.00 | 0.00 | 0.00 | 42 | 1011.1 |
| 20260507112817 | 70 | 262 | 2.0 | 15.0 | 0.00 | 0.00 | 0.00 | 43 | 1011.0 |
| 20260507112317 | 70 | 171 | 4.0 | 12.0 | 0.00 | 0.00 | 0.00 | 43 | 1011.0 |
| 20260507111817 | 71 | 172 | 4.0 | 15.0 | 0.00 | 0.00 | 0.00 | 42 | 1011.1 |
| 20260507111317 | 71 | 199 | 9.0 | 14.0 | 0.00 | 0.00 | 0.00 | 42 | 1011.0 |
| 20260507110816 | 71 | 223 | 6.0 | 11.0 | 0.00 | 0.00 | 0.00 | 43 | 1011.0 |
| 20260507110316 | 71 | 225 | 3.0 | 14.0 | 0.00 | 0.00 | 0.00 | 42 | 1011.0 |
| 20260507105816 | 71 | 272 | 5.0 | 14.0 | 0.00 | 0.00 | 0.00 | 42 | 1011.0 |
| 20260507105315 | 71 | 239 | 6.0 | 13.0 | 0.00 | 0.00 | 0.00 | 41 | 1011.0 |
| 20260507104815 | 70 | 178 | 3.0 | 10.0 | 0.00 | 0.00 | 0.00 | 44 | 1011.0 |
| 20260507104315 | 70 | 202 | 2.0 | 15.0 | 0.00 | 0.00 | 0.00 | 44 | 1011.0 |
| 20260507103815 | 70 | 253 | 6.0 | 16.0 | 0.00 | 0.00 | 0.00 | 42 | 1011.0 |
| 20260507103314 | 70 | 196 | 5.0 | 13.0 | 0.00 | 0.00 | 0.00 | 42 | 1011.0 |
| 20260507102814 | 70 | 209 | 5.0 | 10.0 | 0.00 | 0.00 | 0.00 | 44 | 1011.1 |
| 20260507102314 | 70 | 237 | 8.0 | 9.0 | 0.00 | 0.00 | 0.00 | 43 | 1011.1 |
| 20260507101813 | 70 | 232 | 6.0 | 15.0 | 0.00 | 0.00 | 0.00 | 43 | 1011.0 |
| 20260507101313 | 70 | 226 | 9.0 | 13.0 | 0.00 | 0.00 | 0.00 | 42 | 1011.1 |
| 20260507100813 | 70 | 201 | 2.0 | 13.0 | 0.00 | 0.00 | 0.00 | 43 | 1011.0 |
| 20260507100313 | 70 | 206 | 3.0 | 12.0 | 0.00 | 0.00 | 0.00 | 43 | 1010.9 |
| 20260507095812 | 70 | 209 | 5.0 | 12.0 | 0.00 | 0.00 | 0.00 | 42 | 1011.0 |
| 20260507095312 | 70 | 241 | 8.0 | 13.0 | 0.00 | 0.00 | 0.00 | 44 | 1010.9 |
| 20260507094812 | 70 | 203 | 7.0 | 16.0 | 0.00 | 0.00 | 0.00 | 42 | 1010.9 |
| 20260507094311 | 70 | 230 | 4.0 | 13.0 | 0.00 | 0.00 | 0.00 | 43 | 1011.0 |
| 20260507093811 | 70 | 241 | 8.0 | 16.0 | 0.00 | 0.00 | 0.00 | 43 | 1011.0 |
| 20260507093311 | 70 | 232 | 2.0 | 16.0 | 0.00 | 0.00 | 0.00 | 44 | 1010.9 |
| 20260507092811 | 69 | 175 | 6.0 | 13.0 | 0.00 | 0.00 | 0.00 | 43 | 1011.0 |
| 20260507092310 | 69 | 240 | 9.0 | 14.0 | 0.00 | 0.00 | 0.00 | 45 | 1011.0 |
| 20260507091810 | 69 | 210 | 8.0 | 15.0 | 0.00 | 0.00 | 0.00 | 46 | 1011.0 |
| 20260507091310 | 68 | 232 | 7.0 | 11.0 | 0.00 | 0.00 | 0.00 | 49 | 1011.0 |
| 20260507090809 | 68 | 246 | 5.0 | 11.0 | 0.00 | 0.00 | 0.00 | 49 | 1011.0 |
| 20260507090309 | 68 | 254 | 2.0 | 13.0 | 0.00 | 0.00 | 0.00 | 49 | 1010.9 |
| 20260507085809 | 67 | 196 | 2.0 | 10.0 | 0.00 | 0.00 | 0.00 | 51 | 1010.9 |
| 20260507085309 | 67 | 236 | 2.0 | 9.0 | 0.00 | 0.00 | 0.00 | 50 | 1010.9 |
| 20260507084808 | 67 | 158 | 2.0 | 9.0 | 0.00 | 0.00 | 0.00 | 51 | 1011.0 |
| 20260507084308 | 67 | 264 | 5.0 | 9.0 | 0.00 | 0.00 | 0.00 | 50 | 1010.9 |
| 20260507083808 | 67 | 175 | 4.0 | 11.0 | 0.00 | 0.00 | 0.00 | 51 | 1010.9 |
| 20260507083307 | 67 | 122 | 0.0 | 11.0 | 0.00 | 0.00 | 0.00 | 52 | 1010.8 |
| 20260507082807 | 66 | 209 | 8.0 | 12.0 | 0.00 | 0.00 | 0.00 | 53 | 1010.8 |
| 20260507082307 | 66 | 130 | 3.0 | 12.0 | 0.00 | 0.00 | 0.00 | 54 | 1010.7 |
| 20260507081807 | 66 | 201 | 0.0 | 11.0 | 0.00 | 0.00 | 0.00 | 54 | 1010.8 |
| 20260507081306 | 66 | 199 | 9.0 | 13.0 | 0.00 | 0.00 | 0.00 | 55 | 1010.7 |
| 20260507080806 | 66 | 205 | 8.0 | 12.0 | 0.00 | 0.00 | 0.00 | 54 | 1010.7 |
| 20260507080306 | 65 | 203 | 7.0 | 13.0 | 0.00 | 0.00 | 0.00 | 54 | 1010.8 |
| 20260507075806 | 65 | 196 | 1.0 | 9.0 | 0.00 | 0.00 | 0.00 | 56 | 1010.8 |
| 20260507075307 | 65 | 233 | 2.0 | 10.0 | 0.00 | 0.00 | 0.00 | 56 | 1010.8 |
| 20260507074805 | 65 | 260 | 4.0 | 9.0 | 0.00 | 0.00 | 0.00 | 56 | 1010.8 |
| 20260507074305 | 65 | 234 | 4.0 | 9.0 | 0.00 | 0.00 | 0.00 | 57 | 1010.8 |
| 20260507073804 | 65 | 199 | 3.0 | 9.0 | 0.00 | 0.00 | 0.00 | 56 | 1010.7 |
| 20260507073304 | 64 | 209 | 6.0 | 10.0 | 0.00 | 0.00 | 0.00 | 57 | 1010.7 |
| 20260507072804 | 64 | 213 | 3.0 | 14.0 | 0.00 | 0.00 | 0.00 | 56 | 1010.6 |
| 20260507072306 | 64 | 164 | 3.0 | 10.0 | 0.00 | 0.00 | 0.00 | 57 | 1010.6 |
| 20260507071803 | 64 | 209 | 1.0 | 13.0 | 0.00 | 0.00 | 0.00 | 58 | 1010.6 |
| 20260507071303 | 64 | 171 | 2.0 | 11.0 | 0.00 | 0.00 | 0.00 | 57 | 1010.6 |
| 20260507070803 | 64 | 241 | 5.0 | 12.0 | 0.00 | 0.00 | 0.00 | 57 | 1010.6 |
| 20260507070302 | 64 | 230 | 9.0 | 11.0 | 0.00 | 0.00 | 0.00 | 57 | 1010.6 |
| 20260507065802 | 64 | 210 | 5.0 | 11.0 | 0.00 | 0.00 | 0.00 | 57 | 1010.5 |
| 20260507065305 | 64 | 178 | 0.0 | 4.0 | 0.00 | 0.00 | 0.00 | 58 | 1010.3 |
| 20260507064802 | 64 | 217 | 2.0 | 7.0 | 0.00 | 0.00 | 0.00 | 58 | 1010.3 |
| 20260507064301 | 64 | 172 | 3.0 | 8.0 | 0.00 | 0.00 | 0.00 | 58 | 1010.3 |
| 20260507063801 | 64 | 147 | 4.0 | 8.0 | 0.00 | 0.00 | 0.00 | 58 | 1010.3 |
| 20260507063301 | 64 | 233 | 3.0 | 6.0 | 0.00 | 0.00 | 0.00 | 59 | 1010.3 |
| 20260507062800 | 64 | 243 | 4.0 | 7.0 | 0.00 | 0.00 | 0.00 | 59 | 1010.3 |
| 20260507062300 | 63 | 160 | 3.0 | 11.0 | 0.00 | 0.00 | 0.00 | 59 | 1010.1 |
| 20260507061800 | 63 | 196 | 2.0 | 8.0 | 0.00 | 0.00 | 0.00 | 60 | 1010.1 |
| 20260507061300 | 63 | 243 | 1.0 | 6.0 | 0.00 | 0.00 | 0.00 | 60 | 1010.2 |
| 20260507060759 | 63 | 182 | 2.0 | 6.0 | 0.00 | 0.00 | 0.00 | 60 | 1010.2 |
| 20260507060259 | 63 | 223 | 2.0 | 8.0 | 0.00 | 0.00 | 0.00 | 61 | 1010.2 |
| 20260507055759 | 63 | 240 | 4.0 | 8.0 | 0.00 | 0.00 | 0.00 | 60 | 1010.1 |
| 20260507055258 | 62 | 182 | 3.0 | 9.0 | 0.00 | 0.00 | 0.00 | 61 | 1010.1 |
| 20260507054758 | 62 | 230 | 7.0 | 9.0 | 0.00 | 0.00 | 0.00 | 59 | 1010.1 |
| 20260507054258 | 62 | 104 | 2.0 | 6.0 | 0.00 | 0.00 | 0.00 | 61 | 1010.0 |
| 20260507053758 | 62 | 205 | 2.0 | 9.0 | 0.00 | 0.00 | 0.00 | 60 | 1010.0 |
| 20260507053257 | 62 | 222 | 1.0 | 7.0 | 0.00 | 0.00 | 0.00 | 61 | 1010.1 |
| 20260507052757 | 62 | 232 | 4.0 | 8.0 | 0.00 | 0.00 | 0.00 | 60 | 1010.1 |
| 20260507052257 | 62 | 188 | 2.0 | 11.0 | 0.00 | 0.00 | 0.00 | 61 | 1010.1 |
| 20260507051756 | 62 | 213 | 2.0 | 7.0 | 0.00 | 0.00 | 0.00 | 62 | 1010.1 |
| 20260507051256 | 62 | 199 | 0.0 | 9.0 | 0.00 | 0.00 | 0.00 | 62 | 1010.1 |
| 20260507050756 | 62 | 217 | 3.0 | 8.0 | 0.00 | 0.00 | 0.00 | 62 | 1010.1 |
| 20260507050256 | 62 | 213 | 2.0 | 9.0 | 0.00 | 0.00 | 0.00 | 62 | 1010.2 |
| 20260507045755 | 62 | 239 | 2.0 | 8.0 | 0.00 | 0.00 | 0.00 | 62 | 1010.2 |
| 20260507045255 | 62 | 253 | 3.0 | 10.0 | 0.00 | 0.00 | 0.00 | 61 | 1010.1 |
| 20260507044755 | 62 | 164 | 2.0 | 9.0 | 0.00 | 0.00 | 0.00 | 61 | 1010.1 |
| 20260507044254 | 62 | 229 | 7.0 | 8.0 | 0.00 | 0.00 | 0.00 | 60 | 1010.1 |
| 20260507043754 | 62 | 192 | 5.0 | 10.0 | 0.00 | 0.00 | 0.00 | 60 | 1010.0 |
| 20260507043254 | 62 | 248 | 1.0 | 9.0 | 0.00 | 0.00 | 0.00 | 60 | 1010.0 |
| 20260507042754 | 62 | 209 | 3.0 | 9.0 | 0.00 | 0.00 | 0.00 | 60 | 1010.0 |
| 20260507042253 | 62 | 208 | 2.0 | 8.0 | 0.00 | 0.00 | 0.00 | 60 | 1009.9 |
| 20260507041753 | 62 | 188 | 3.0 | 5.0 | 0.00 | 0.00 | 0.00 | 60 | 1009.8 |
| 20260507041253 | 62 | 209 | 2.0 | 6.0 | 0.00 | 0.00 | 0.00 | 61 | 1009.7 |
| 20260507040753 | 62 | 225 | 5.0 | 6.0 | 0.00 | 0.00 | 0.00 | 61 | 1009.6 |
| 20260507040252 | 62 | 244 | 2.0 | 5.0 | 0.00 | 0.00 | 0.00 | 60 | 1009.6 |
| 20260507035752 | 62 | 199 | 3.0 | 9.0 | 0.00 | 0.00 | 0.00 | 60 | 1009.6 |
| 20260507035252 | 62 | 142 | 2.0 | 9.0 | 0.00 | 0.00 | 0.00 | 59 | 1009.5 |
| 20260507034751 | 62 | 153 | 1.0 | 8.0 | 0.00 | 0.00 | 0.00 | 59 | 1009.5 |
| 20260507034251 | 63 | 237 | 2.0 | 10.0 | 0.00 | 0.00 | 0.00 | 57 | 1009.4 |
| 20260507033751 | 63 | 233 | 1.0 | 6.0 | 0.00 | 0.00 | 0.00 | 56 | 1009.4 |
| 20260507033250 | 63 | 195 | 0.0 | 4.0 | 0.00 | 0.00 | 0.00 | 56 | 1009.2 |
| 20260507032750 | 62 | 150 | 0.0 | 2.0 | 0.00 | 0.00 | 0.00 | 55 | 1009.2 |
| 20260507032250 | 63 | 143 | 0.0 | 6.0 | 0.00 | 0.00 | 0.00 | 55 | 1009.2 |
| 20260507031750 | 62 | 143 | 0.0 | 5.0 | 0.00 | 0.00 | 0.00 | 55 | 1009.1 |
| 20260507031249 | 62 | 230 | 2.0 | 5.0 | 0.00 | 0.00 | 0.00 | 55 | 1009.0 |
| 20260507030749 | 62 | 174 | 4.0 | 5.0 | 0.00 | 0.00 | 0.00 | 55 | 1009.0 |
| 20260507030249 | 63 | 202 | 0.0 | 5.0 | 0.00 | 0.00 | 0.00 | 55 | 1009.0 |
| 20260507025749 | 63 | 126 | 0.0 | 6.0 | 0.00 | 0.00 | 0.00 | 54 | 1008.9 |
| 20260507025248 | 63 | 146 | 1.0 | 10.0 | 0.00 | 0.00 | 0.00 | 54 | 1008.9 |
| 20260507024748 | 63 | 177 | 4.0 | 9.0 | 0.00 | 0.00 | 0.00 | 54 | 1008.8 |
| 20260507024248 | 63 | 240 | 0.0 | 7.0 | 0.00 | 0.00 | 0.00 | 54 | 1008.8 |
| 20260507023747 | 63 | 236 | 1.0 | 7.0 | 0.00 | 0.00 | 0.00 | 54 | 1008.8 |